DW8231 Weather Reports


Display with metric or nautical units.
time (UTC)temp
F
wind
direction
speed
MPH
gust
MPH
rain 1hr
in
rain 24hr
in
rain mn
in
humidity
%
barometer
mb
20260507043021 40 261 0.0 1.0 0.00 0.00 0.00 60 1015.0
20260507042514 40 261 0.0 2.0 0.00 0.00 0.00 59 1015.1
20260507042014 40 261 0.0 2.0 0.00 0.00 0.00 59 1015.2
20260507041514 40 261 0.0 2.0 0.00 0.00 0.00 59 1015.2
20260507041014 40 261 0.0 1.0 0.00 0.00 0.00 59 1015.2
20260507040517 40 261 0.0 1.0 0.00 0.00 0.00 58 1015.2
20260507040014 40 261 0.0 1.0 0.00 0.00 0.00 59 1015.2
20260507035513 40 261 0.0 1.0 0.00 0.00 0.00 58 1015.3
20260507035013 40 261 0.0 1.0 0.00 0.00 0.00 58 1015.4
20260507034512 40 261 0.0 1.0 0.00 0.00 0.00 58 1015.4
20260507034013 40 261 0.0 1.0 0.00 0.00 0.00 58 1015.4
20260507033514 40 261 0.0 1.0 0.00 0.00 0.00 58 1015.4
20260507033013 40 261 0.0 3.0 0.00 0.00 0.00 58 1015.5
20260507032512 40 261 0.0 3.0 0.00 0.00 0.00 58 1015.5
20260507032012 40 261 0.0 3.0 0.00 0.00 0.00 58 1015.5
20260507031512 40 261 1.0 3.0 0.00 0.00 0.00 58 1015.6
20260507031013 40 261 0.0 2.0 0.00 0.00 0.00 58 1015.6
20260507030513 40 261 0.0 3.0 0.00 0.00 0.00 58 1015.6
20260507030013 40 261 0.0 2.0 0.00 0.00 0.00 57 1015.7
20260507025513 40 261 0.0 2.0 0.00 0.00 0.00 57 1015.6
20260507025012 40 261 0.0 2.0 0.00 0.00 0.00 57 1015.6
20260507024513 40 261 0.0 2.0 0.00 0.00 0.00 57 1015.6
20260507024015 40 261 0.0 2.0 0.00 0.00 0.00 57 1015.6
20260507023512 41 261 0.0 1.0 0.00 0.00 0.00 55 1015.6
20260507023012 41 261 0.0 1.0 0.00 0.00 0.00 55 1015.6
20260507022513 41 261 0.0 1.0 0.00 0.00 0.00 55 1015.6
20260507022019 41 261 0.0 1.0 0.00 0.00 0.00 56 1015.6
20260507021511 41 261 0.0 1.0 0.00 0.00 0.00 56 1015.6
20260507021011 41 261 0.0 1.0 0.00 0.00 0.00 55 1015.6
20260507020512 41 261 0.0 0.0 0.00 0.00 0.00 54 1015.6
20260507020012 42 261 0.0 1.0 0.00 0.00 0.00 54 1015.6
20260507015511 42 261 0.0 7.0 0.00 0.00 0.00 53 1015.6
20260507015011 42 261 1.0 7.0 0.00 0.00 0.00 52 1015.6
20260507014513 43 259 1.0 6.0 0.00 0.00 0.00 53 1015.6
20260507014011 43 263 2.0 9.0 0.00 0.00 0.00 52 1015.5
20260507013510 43 273 1.0 4.0 0.00 0.00 0.00 51 1015.6
20260507013025 43 273 2.0 4.0 0.00 0.00 0.00 51 1015.6
20260507012511 43 277 2.0 7.0 0.00 0.00 0.00 51 1015.6
20260507012012 44 274 1.0 6.0 0.00 0.00 0.00 51 1015.6
20260507011514 44 274 2.0 9.0 0.00 0.00 0.00 51 1015.6
20260507011011 44 273 2.0 9.0 0.00 0.00 0.00 51 1015.6
20260507010511 44 270 1.0 6.0 0.00 0.00 0.00 51 1015.7
20260507010018 44 269 2.0 6.0 0.00 0.00 0.00 51 1015.6
20260507005512 44 263 1.0 9.0 0.00 0.00 0.00 51 1015.6
20260507005010 44 265 2.0 9.0 0.00 0.00 0.00 51 1015.7
20260507004510 44 284 2.0 5.0 0.00 0.00 0.00 52 1015.7
20260507004010 44 263 1.0 4.0 0.00 0.00 0.00 52 1015.6
20260507003511 44 263 1.0 6.0 0.00 0.00 0.00 51 1015.6
20260507003009 44 263 2.0 6.0 0.00 0.00 0.00 50 1015.6
20260507002513 44 263 3.0 9.0 0.00 0.00 0.00 50 1015.6
20260507002010 44 271 2.0 10.0 0.00 0.00 0.00 51 1015.7
20260507001510 44 267 3.0 11.0 0.00 0.00 0.00 51 1015.7
20260507001010 44 250 4.0 13.0 0.00 0.00 0.00 51 1015.8
20260507000509 44 255 3.0 13.0 0.00 0.00 0.00 50 1015.8
20260507000009 44 262 5.0 9.0 0.00 0.00 0.00 50 1015.8
20260506235509 44 264 5.0 10.0 0.00 0.00 0.00 50 1015.8
20260506235008 44 244 3.0 10.0 0.00 0.00 0.00 51 1015.7
20260506234510 44 261 4.0 10.0 0.00 0.00 0.00 51 1015.8
20260506234011 44 279 2.0 7.0 0.00 0.00 0.00 51 1015.8
20260506233508 44 246 1.0 12.0 0.00 0.00 0.00 52 1015.9
20260506233013 44 247 1.0 12.0 0.00 0.00 0.00 52 1015.9
20260506232512 44 273 3.0 9.0 0.00 0.00 0.00 52 1015.9
20260506232012 44 261 2.0 9.0 0.00 0.00 0.00 51 1015.9
20260506231512 44 258 3.0 9.0 0.00 0.00 0.00 51 1015.9
20260506231011 44 277 3.0 8.0 0.00 0.00 0.00 52 1015.9
20260506230512 44 284 2.0 8.0 0.00 0.00 0.00 51 1016.0
20260506230011 44 293 2.0 8.0 0.00 0.00 0.00 52 1016.0
20260506225512 44 249 3.0 7.0 0.00 0.00 0.00 51 1016.0
20260506225011 44 225 2.0 16.0 0.00 0.00 0.00 51 1016.0
20260506224511 44 277 5.0 16.0 0.00 0.00 0.00 51 1016.0
20260506224010 44 296 3.0 8.0 0.00 0.00 0.00 51 1016.0
20260506223510 44 269 2.0 12.0 0.00 0.00 0.00 51 1016.0
20260506223006 44 269 3.0 12.0 0.00 0.00 0.00 51 1016.0
20260506222506 44 241 3.0 10.0 0.00 0.00 0.00 51 1016.1
20260506222006 44 239 5.0 10.0 0.00 0.00 0.00 52 1016.1
20260506221505 44 248 3.0 10.0 0.00 0.00 0.00 52 1016.1
20260506221006 44 268 3.0 8.0 0.00 0.00 0.00 51 1016.2
20260506220507 44 267 3.0 8.0 0.00 0.00 0.00 52 1016.3
20260506220005 43 268 2.0 8.0 0.00 0.00 0.00 52 1016.3
20260506215504 43 277 4.0 15.0 0.00 0.00 0.00 52 1016.3
20260506215006 43 279 4.0 15.0 0.00 0.00 0.00 52 1016.3
20260506214507 43 278 3.0 11.0 0.00 0.00 0.00 52 1016.3
20260506214004 43 267 4.0 13.0 0.00 0.00 0.00 52 1016.3
20260506213503 43 276 3.0 9.0 0.00 0.00 0.00 52 1016.4
20260506213005 43 276 3.0 9.0 0.00 0.00 0.00 52 1016.4
20260506212505 43 269 3.0 13.0 0.00 0.00 0.00 52 1016.4
20260506212005 43 270 4.0 13.0 0.00 0.00 0.00 53 1016.4
20260506211504 43 271 3.0 11.0 0.00 0.00 0.00 52 1016.4
20260506211005 43 271 4.0 11.0 0.00 0.00 0.00 53 1016.4
20260506210505 43 242 4.0 11.0 0.00 0.00 0.00 53 1016.4
20260506210006 43 279 4.0 15.0 0.00 0.00 0.00 51 1016.5
20260506205504 43 256 5.0 15.0 0.00 0.00 0.00 52 1016.5
20260506205004 43 242 5.0 14.0 0.00 0.00 0.00 52 1016.4
20260506204504 43 219 4.0 12.0 0.00 0.00 0.00 53 1016.4
20260506204003 43 235 4.0 16.0 0.00 0.00 0.00 52 1016.4
20260506203503 43 271 4.0 14.0 0.00 0.00 0.00 50 1016.4
20260506203003 43 271 5.0 14.0 0.00 0.00 0.00 50 1016.4
20260506202602 43 277 4.0 14.0 0.00 0.00 0.00 51 1016.4
20260506202002 43 284 3.0 12.0 0.00 0.00 0.00 50 1016.4
20260506201502 43 283 4.0 8.0 0.00 0.00 0.00 50 1016.4
20260506201002 43 296 2.0 13.0 0.00 0.00 0.00 50 1016.4
20260506200501 43 241 4.0 12.0 0.00 0.00 0.00 51 1016.5
20260506200001 43 269 3.0 11.0 0.00 0.00 0.00 51 1016.5
20260506195501 43 281 4.0 13.0 0.00 0.00 0.00 52 1016.6
20260506195102 42 237 5.0 13.0 0.00 0.00 0.00 51 1016.6
20260506194603 43 289 4.0 13.0 0.00 0.00 0.00 51 1016.6
20260506194059 43 279 3.0 11.0 0.00 0.00 0.00 51 1016.6
20260506193600 43 248 5.0 13.0 0.00 0.00 0.00 52 1016.5
20260506193040 43 271 6.0 15.0 0.00 0.00 0.00 51 1016.6
20260506192537 43 269 4.0 13.0 0.00 0.00 0.00 51 1016.6
20260506192037 42 292 5.0 13.0 0.00 0.00 0.00 52 1016.5
20260506191541 42 296 5.0 12.0 0.00 0.00 0.00 51 1016.6
20260506191037 42 259 4.0 12.0 0.00 0.00 0.00 53 1016.6
20260506190537 42 241 5.0 13.0 0.00 0.00 0.00 51 1016.5
20260506190037 42 229 4.0 16.0 0.00 0.00 0.00 51 1016.6
20260506185528 43 229 4.0 13.0 0.00 0.00 0.00 51 1016.5
20260506185026 43 242 4.0 13.0 0.00 0.00 0.00 50 1016.6
20260506184540 43 237 7.0 13.0 0.00 0.00 0.00 51 1016.6
20260506184026 42 285 4.0 11.0 0.00 0.00 0.00 51 1016.5
20260506183522 42 279 3.0 12.0 0.00 0.00 0.00 51 1016.6
20260506183033 42 281 4.0 14.0 0.00 0.00 0.00 51 1016.6
20260506182522 42 271 5.0 14.0 0.00 0.00 0.00 51 1016.6
20260506182023 42 268 3.0 12.0 0.00 0.00 0.00 52 1016.6
20260506181526 42 257 4.0 13.0 0.00 0.00 0.00 51 1016.6
20260506181023 42 238 3.0 13.0 0.00 0.00 0.00 52 1016.6
20260506180521 42 290 4.0 9.0 0.00 0.00 0.00 52 1016.7
20260506175522 41 276 5.0 13.0 0.00 0.00 0.00 51 1016.7
20260506175020 41 263 5.0 11.0 0.00 0.00 0.00 52 1016.7
20260506174524 41 279 5.0 14.0 0.00 0.00 0.00 52 1016.7
20260506174021 41 287 5.0 14.0 0.00 0.00 0.00 51 1016.8
20260506173521 42 266 3.0 12.0 0.00 0.00 0.00 51 1016.8
20260506173021 41 273 4.0 12.0 0.00 0.00 0.00 51 1016.8
20260506172520 41 294 4.0 12.0 0.00 0.00 0.00 51 1016.8
20260506172020 41 279 4.0 10.0 0.00 0.00 0.00 51 1016.8
20260506171521 41 296 5.0 16.0 0.00 0.00 0.00 50 1016.7
20260506171020 41 288 6.0 16.0 0.00 0.00 0.00 49 1016.8
20260506170519 42 274 6.0 13.0 0.00 0.00 0.00 51 1016.8
20260506165519 41 298 4.0 16.0 0.00 0.00 0.00 51 1016.9
20260506165018 41 286 5.0 16.0 0.00 0.00 0.00 52 1016.9
20260506164517 41 298 3.0 14.0 0.00 0.00 0.00 53 1016.9
20260506164017 40 294 5.0 14.0 0.00 0.00 0.00 53 1016.9
20260506163519 40 286 4.0 13.0 0.00 0.00 0.00 54 1016.9
20260506163017 40 259 7.0 13.0 0.00 0.00 0.00 54 1016.9
20260506162517 40 261 6.0 12.0 0.00 0.00 0.00 53 1016.8
20260506162017 40 290 3.0 11.0 0.00 0.00 0.00 53 1016.8
20260506161517 40 271 3.0 17.0 0.00 0.00 0.00 53 1016.8
20260506161016 40 279 7.0 17.0 0.00 0.00 0.00 53 1016.8
20260506160516 40 287 4.0 13.0 0.00 0.00 0.00 53 1016.7
20260506155517 41 275 4.0 12.0 0.00 0.00 0.00 52 1016.7
20260506155017 41 290 6.0 17.0 0.00 0.00 0.00 52 1016.7
20260506154517 41 288 7.0 14.0 0.00 0.00 0.00 51 1016.7
20260506154016 41 273 6.0 12.0 0.00 0.00 0.00 53 1016.5
20260506153520 41 287 5.0 13.0 0.00 0.00 0.00 53 1016.5
20260506153021 41 260 5.0 13.0 0.00 0.00 0.00 53 1016.5
20260506152517 40 285 6.0 15.0 0.00 0.00 0.00 51 1016.6
20260506152018 41 284 8.0 15.0 0.00 0.00 0.00 50 1016.6
20260506151516 42 271 4.0 12.0 0.00 0.00 0.00 52 1016.5
20260506151014 41 277 4.0 15.0 0.00 0.00 0.00 53 1016.5
20260506150514 41 286 5.0 15.0 0.00 0.00 0.00 53 1016.5
20260506145513 41 281 5.0 14.0 0.00 0.00 0.00 53 1016.6
20260506145013 41 246 3.0 13.0 0.00 0.00 0.00 54 1016.6
20260506144516 41 257 7.0 13.0 0.00 0.00 0.00 54 1016.6
20260506144015 41 298 3.0 11.0 0.00 0.00 0.00 53 1016.5
20260506143512 41 275 5.0 14.0 0.00 0.00 0.00 53 1016.6
20260506143014 41 276 5.0 14.0 0.00 0.00 0.00 53 1016.5
20260506142512 41 296 6.0 14.0 0.00 0.00 0.00 53 1016.5
20260506142010 41 232 7.0 14.0 0.00 0.00 0.00 53 1016.5
20260506141512 41 296 4.0 11.0 0.00 0.00 0.00 53 1016.6
20260506141014 41 275 5.0 9.0 0.00 0.00 0.00 55 1016.5
20260506140513 41 259 4.0 14.0 0.00 0.00 0.00 54 1016.5
20260506135508 41 298 3.0 11.0 0.00 0.00 0.00 58 1016.5
20260506135009 40 272 2.0 10.0 0.00 0.00 0.00 57 1016.4
20260506134506 40 286 2.0 14.0 0.00 0.00 0.00 58 1016.4
20260506134009 39 281 3.0 14.0 0.00 0.00 0.00 57 1016.4
20260506133504 39 304 3.0 12.0 0.00 0.00 0.00 58 1016.3
20260506133002 39 292 4.0 12.0 0.00 0.00 0.00 59 1016.3
20260506132501 39 296 4.0 10.0 0.00 0.00 0.00 59 1016.4
20260506132100 39 288 3.0 9.0 0.00 0.00 0.00 61 1016.2
20260506131559 38 291 3.0 9.0 0.00 0.00 0.00 61 1016.3
20260506131059 38 294 3.0 9.0 0.00 0.00 0.00 62 1016.2
20260506130556 38 286 2.0 7.0 0.00 0.00 0.00 63 1016.2
20260506125554 37 288 3.0 10.0 0.00 0.00 0.00 64 1016.0
20260506125053 37 290 2.0 10.0 0.00 0.00 0.00 65 1015.9
20260506124552 37 284 2.0 5.0 0.00 0.00 0.00 67 1015.8
20260506124051 36 284 1.0 5.0 0.00 0.00 0.00 68 1015.7
20260506123548 36 284 1.0 4.0 0.00 0.00 0.00 68 1015.8
20260506123048 35 284 1.0 5.0 0.00 0.00 0.00 70 1015.7
20260506122547 35 281 2.0 4.0 0.00 0.00 0.00 71 1015.8
20260506122044 34 284 1.0 5.0 0.00 0.00 0.00 72 1015.7
20260506121543 34 284 2.0 5.0 0.00 0.00 0.00 73 1015.7
20260506121042 33 284 1.0 4.0 0.00 0.00 0.00 74 1015.6
20260506120541 33 312 1.0 3.0 0.00 0.00 0.00 74 1015.5
20260506115538 33 317 0.0 3.0 0.00 0.00 0.00 73 1015.4
20260506115036 33 319 0.0 2.0 0.00 0.00 0.00 73 1015.3
20260506114536 33 319 0.0 2.0 0.00 0.00 0.00 73 1015.2
20260506114036 33 319 0.0 2.0 0.00 0.00 0.00 73 1015.2
20260506113535 33 319 0.0 2.0 0.00 0.00 0.00 73 1015.2
20260506113040 33 319 0.0 2.0 0.00 0.00 0.00 73 1015.2
20260506112535 33 319 0.0 2.0 0.00 0.00 0.00 73 1015.1
20260506112037 33 319 0.0 2.0 0.00 0.00 0.00 73 1015.1
20260506111534 33 319 0.0 2.0 0.00 0.00 0.00 73 1015.1
20260506111034 33 319 0.0 2.0 0.00 0.00 0.00 73 1015.0
20260506110534 33 319 0.0 2.0 0.00 0.00 0.00 73 1015.1
20260506105534 32 319 0.0 2.0 0.00 0.00 0.00 74 1015.1
20260506105037 32 319 0.0 2.0 0.00 0.00 0.00 74 1015.1
20260506104534 32 320 0.0 2.0 0.00 0.00 0.00 74 1015.1
20260506104032 32 320 0.0 2.0 0.00 0.00 0.00 74 1014.9
20260506103531 32 321 0.0 2.0 0.00 0.00 0.00 74 1014.9
20260506103031 32 322 0.0 2.0 0.00 0.00 0.00 74 1014.8
20260506102530 32 322 0.0 2.0 0.00 0.00 0.00 74 1014.8
20260506102030 32 322 0.0 2.0 0.00 0.00 0.00 74 1014.7
20260506101529 32 322 0.0 2.0 0.00 0.00 0.00 74 1014.7
20260506101029 32 322 0.0 1.0 0.00 0.00 0.00 74 1014.6
20260506100529 32 322 0.0 0.0 0.00 0.00 0.00 74 1014.6
20260506095529 32 322 0.0 0.0 0.00 0.00 0.00 73 1014.7
20260506095028 32 322 0.0 1.0 0.00 0.00 0.00 73 1014.6
20260506094529 32 322 0.0 1.0 0.00 0.00 0.00 73 1014.6
20260506094030 32 322 0.0 0.0 0.00 0.00 0.00 73 1014.5
20260506093529 32 322 0.0 0.0 0.00 0.00 0.00 73 1014.6
20260506093027 32 322 0.0 0.0 0.00 0.00 0.00 73 1014.7
20260506092530 32 322 0.0 1.0 0.00 0.00 0.00 73 1014.6
20260506092027 32 322 0.0 2.0 0.00 0.00 0.00 73 1014.6
20260506091528 32 322 0.0 2.0 0.00 0.00 0.00 74 1014.6
20260506091027 32 322 0.0 2.0 0.00 0.00 0.00 73 1014.6
20260506090525 32 322 0.0 1.0 0.00 0.00 0.00 73 1014.5
20260506085526 32 322 0.0 1.0 0.00 0.00 0.00 73 1014.4
20260506085023 32 322 0.0 0.0 0.00 0.00 0.00 72 1014.4
20260506084523 32 322 0.0 0.0 0.00 0.00 0.00 72 1014.3
20260506084023 32 322 0.0 0.0 0.00 0.00 0.00 72 1014.3
20260506083522 33 322 0.0 0.0 0.00 0.00 0.00 72 1014.3
20260506083021 33 322 0.0 0.0 0.00 0.00 0.00 72 1014.4
20260506082521 33 322 0.0 0.0 0.00 0.00 0.00 72 1014.5
20260506082020 33 322 0.0 0.0 0.00 0.00 0.00 72 1014.5
20260506081521 33 322 0.0 1.0 0.00 0.00 0.00 71 1014.5
20260506081019 33 322 0.0 1.0 0.00 0.00 0.00 71 1014.5
20260506080518 33 322 0.0 1.0 0.00 0.00 0.00 70 1014.3
20260506073515 35 322 0.0 0.0 0.00 0.00 0.00 68 1014.0
20260506073014 35 322 0.0 0.0 0.00 0.00 0.00 68 1014.0
20260506072514 35 322 0.0 1.0 0.00 0.00 0.00 68 1014.0
20260506072013 35 322 0.0 1.0 0.00 0.00 0.00 67 1014.0
20260506071513 35 322 0.0 1.0 0.00 0.00 0.00 67 1014.0
20260506071011 35 322 0.0 1.0 0.00 0.00 0.00 66 1013.9
20260506070513 35 322 0.0 2.0 0.00 0.00 0.00 66 1014.0
20260506062508 36 322 1.0 3.0 0.00 0.00 0.00 66 1013.7
20260506062007 36 288 0.0 1.0 0.00 0.00 0.00 65 1013.8
20260506061506 36 288 0.0 1.0 0.00 0.00 0.00 65 1013.8
20260506061009 36 288 0.0 1.0 0.00 0.00 0.00 64 1013.8
20260506060506 36 288 0.0 1.0 0.00 0.00 0.00 63 1013.7
20260506051057 39 286 2.0 5.0 0.00 0.00 0.00 57 1013.1
20260506050557 39 287 1.0 7.0 0.00 0.00 0.00 57 1013.1
20260506045055 39 290 1.0 5.0 0.00 0.00 0.00 57 1013.0
20260506044555 40 290 2.0 7.0 0.00 0.00 0.00 57 1012.9
20260506044056 39 292 2.0 8.0 0.00 0.00 0.00 57 1012.9
20260506043554 39 294 2.0 7.0 0.00 0.00 0.00 57 1013.0